• In Uzbekistan
  • List of Countries
  • For 7 days
  • Water Temperature
  • Satellite Maps
  • Weather Map
  • Weather Widgets
  • user-avatar
    Login

    Hourly Weather Mohale's Hoek

    Today, 24 February, Saturday

    Time Temperature Precipitation Wind Pressure Humidity
    00:00 +19°C° 0 mm 2 mps 628 mmHg 63%
    01:00 +18°C° 0 mm 2 mps 628 mmHg 65%
    02:00 +18°C° 0 mm 2 mps 628 mmHg 71%
    03:00 +17°C° 0 mm 2 mps 628 mmHg 72%
    04:00 +17°C° 0 mm 2 mps 628 mmHg 73%
    05:00 +17°C° 0 mm 2 mps 628 mmHg 75%
    06:00 +18°C° 0.1 mm 3 mps 628 mmHg 71%
    07:00 +19°C° 0.1 mm 3 mps 628 mmHg 68%
    08:00 +20°C° 0.1 mm 3 mps 629 mmHg 65%
    09:00 +21°C° 0.2 mm 4 mps 629 mmHg 60%
    10:00 +23°C° 0.2 mm 5 mps 629 mmHg 55%
    11:00 +25°C° 0.2 mm 5 mps 629 mmHg 50%
    12:00 +26°C° 0.5 mm 6 mps 629 mmHg 49%
    13:00 +27°C° 0.5 mm 6 mps 629 mmHg 47%
    14:00 +27°C° 0.5 mm 7 mps 629 mmHg 45%
    15:00 +27°C° 0.4 mm 6 mps 628 mmHg 47%
    16:00 +26°C° 0.4 mm 6 mps 628 mmHg 48%
    17:00 +24°C° 0.4 mm 6 mps 628 mmHg 50%
    18:00 +23°C° 0.5 mm 5 mps 627 mmHg 56%
    19:00 +21°C° 0.5 mm 4 mps 627 mmHg 62%
    20:00 +20°C° 0.5 mm 3 mps 627 mmHg 69%
    21:00 +19°C° 0.2 mm 2 mps 627 mmHg 70%
    22:00 +18°C° 0.2 mm 2 mps 627 mmHg 72%
    23:00 +17°C° 0.2 mm 2 mps 628 mmHg 73%

    Tomorrow, 25 February, Sunday

    Time Temperature Precipitation Wind Pressure Humidity
    00:00 +18°C° 0 mm 1 mps 628 mmHg 73%
    01:00 +16°C° 0 mm 1 mps 628 mmHg 74%
    02:00 +15°C° 0 mm 1 mps 628 mmHg 74%
    03:00 +14°C° 0 mm 1 mps 628 mmHg 75%
    04:00 +14°C° 0 mm 1 mps 628 mmHg 76%
    05:00 +13°C° 0 mm 1 mps 628 mmHg 77%
    06:00 +14°C° 0 mm 2 mps 629 mmHg 74%
    07:00 +15°C° 0 mm 2 mps 630 mmHg 71%
    08:00 +16°C° 0 mm 3 mps 630 mmHg 68%
    09:00 +17°C° 0 mm 3 mps 631 mmHg 61%
    10:00 +18°C° 0 mm 3 mps 632 mmHg 53%
    11:00 +20°C° 0 mm 3 mps 632 mmHg 46%
    12:00 +21°C° 0 mm 4 mps 632 mmHg 42%
    13:00 +21°C° 0 mm 4 mps 632 mmHg 38%
    14:00 +22°C° 0 mm 5 mps 632 mmHg 34%
    15:00 +22°C° 0 mm 5 mps 632 mmHg 36%
    16:00 +21°C° 0 mm 5 mps 632 mmHg 38%
    17:00 +21°C° 0 mm 5 mps 632 mmHg 40%
    18:00 +19°C° 0 mm 5 mps 632 mmHg 46%
    19:00 +17°C° 0 mm 4 mps 632 mmHg 52%
    20:00 +14°C° 0 mm 4 mps 632 mmHg 58%
    21:00 +13°C° 0 mm 4 mps 632 mmHg 61%
    22:00 +12°C° 0 mm 3 mps 631 mmHg 65%
    23:00 +11°C° 0 mm 3 mps 631 mmHg 68%

    Day after tomorrow, 26 February, Monday

    Time Temperature Precipitation Wind Pressure Humidity
    00:00 +10°C° 0 mm 2 mps 631 mmHg 70%
    01:00 +10°C° 0 mm 2 mps 631 mmHg 72%
    02:00 +9°C° 0 mm 2 mps 630 mmHg 74%
    03:00 +9°C° 0 mm 2 mps 630 mmHg 74%
    04:00 +10°C° 0 mm 1 mps 630 mmHg 75%
    05:00 +9°C° 0 mm 1 mps 630 mmHg 75%
    06:00 +11°C° 0 mm 1 mps 631 mmHg 67%
    07:00 +13°C° 0 mm 1 mps 632 mmHg 59%
    08:00 +15°C° 0 mm 1 mps 633 mmHg 51%
    09:00 +19°C° 0 mm 1 mps 633 mmHg 45%
    10:00 +20°C° 0 mm 2 mps 634 mmHg 39%
    11:00 +24°C° 0 mm 3 mps 634 mmHg 32%
    12:00 +25°C° 0 mm 4 mps 634 mmHg 30%
    13:00 +26°C° 0 mm 4 mps 634 mmHg 28%
    14:00 +27°C° 0 mm 4 mps 633 mmHg 25%
    15:00 +27°C° 0 mm 4 mps 633 mmHg 26%
    16:00 +27°C° 0 mm 4 mps 633 mmHg 26%
    17:00 +27°C° 0 mm 3 mps 632 mmHg 27%
    18:00 +25°C° 0 mm 3 mps 632 mmHg 33%
    19:00 +21°C° 0 mm 2 mps 631 mmHg 38%
    20:00 +20°C° 0 mm 1 mps 631 mmHg 44%
    21:00 +19°C° 0 mm 1 mps 631 mmHg 45%
    22:00 +19°C° 0 mm 1 mps 631 mmHg 46%
    23:00 +19°C° 0 mm 1 mps 631 mmHg 47%

    27 February, Tuesday

    Time Temperature Precipitation Wind Pressure Humidity
    00:00 +18°C° 0 mm 1 mps 631 mmHg 48%
    01:00 +17°C° 0 mm 2 mps 631 mmHg 49%
    02:00 +17°C° 0 mm 2 mps 630 mmHg 51%
    03:00 +17°C° 0 mm 2 mps 630 mmHg 51%
    04:00 +16°C° 0 mm 2 mps 630 mmHg 51%
    05:00 +16°C° 0 mm 2 mps 631 mmHg 52%
    06:00 +18°C° 0 mm 2 mps 631 mmHg 51%
    07:00 +20°C° 0 mm 3 mps 632 mmHg 51%
    08:00 +22°C° 0 mm 3 mps 633 mmHg 50%
    09:00 +24°C° 0 mm 3 mps 634 mmHg 47%
    10:00 +26°C° 0 mm 4 mps 634 mmHg 44%
    11:00 +27°C° 0 mm 4 mps 634 mmHg 40%
    12:00 +28°C° 0 mm 4 mps 634 mmHg 35%
    13:00 +29°C° 0 mm 5 mps 634 mmHg 30%
    14:00 +30°C° 0 mm 5 mps 633 mmHg 25%
    15:00 +30°C° 0 mm 4 mps 633 mmHg 23%
    16:00 +30°C° 0 mm 4 mps 633 mmHg 22%
    17:00 +30°C° 0 mm 4 mps 633 mmHg 20%
    18:00 +28°C° 0 mm 3 mps 632 mmHg 25%
    19:00 +25°C° 0 mm 2 mps 632 mmHg 29%
    20:00 +22°C° 0 mm 1 mps 631 mmHg 34%
    21:00 +22°C° 0 mm 1 mps 631 mmHg 34%
    22:00 +21°C° 0 mm 1 mps 632 mmHg 35%
    23:00 +21°C° 0 mm 1 mps 632 mmHg 36%

    28 February, Wednesday

    Time Temperature Precipitation Wind Pressure Humidity
    00:00 +20°C° 0 mm 1 mps 632 mmHg 40%
    01:00 +20°C° 0 mm 1 mps 631 mmHg 44%
    02:00 +19°C° 0 mm 1 mps 631 mmHg 47%
    03:00 +19°C° 0 mm 1 mps 631 mmHg 49%
    04:00 +19°C° 0 mm 1 mps 631 mmHg 51%
    05:00 +18°C° 0 mm 1 mps 631 mmHg 52%
    06:00 +19°C° 0 mm 2 mps 632 mmHg 49%
    07:00 +21°C° 0 mm 2 mps 633 mmHg 46%
    08:00 +24°C° 0 mm 2 mps 634 mmHg 43%
    09:00 +26°C° 0 mm 2 mps 634 mmHg 39%
    10:00 +28°C° 0 mm 3 mps 634 mmHg 35%
    11:00 +29°C° 0 mm 3 mps 634 mmHg 31%
    12:00 +30°C° 0 mm 3 mps 634 mmHg 28%
    13:00 +30°C° 0 mm 3 mps 633 mmHg 26%
    14:00 +31°C° 0 mm 3 mps 633 mmHg 23%
    15:00 +31°C° 0 mm 3 mps 633 mmHg 24%
    16:00 +30°C° 0 mm 3 mps 633 mmHg 25%
    17:00 +30°C° 0 mm 2 mps 633 mmHg 25%
    18:00 +28°C° 0 mm 2 mps 632 mmHg 30%
    19:00 +25°C° 0 mm 2 mps 632 mmHg 35%
    20:00 +23°C° 0 mm 1 mps 631 mmHg 39%
    21:00 +22°C° 0 mm 1 mps 631 mmHg 41%
    22:00 +21°C° 0 mm 2 mps 631 mmHg 43%
    23:00 +21°C° 0 mm 2 mps 631 mmHg 44%

    1 March, Thursday

    Time Temperature Precipitation Wind Pressure Humidity
    00:00 +22°C° 0 mm 1 mps 631 mmHg 46%
    01:00 +22°C° 0 mm 1 mps 631 mmHg 48%
    02:00 +21°C° 0 mm 1 mps 631 mmHg 49%
    03:00 +21°C° 0.1 mm 1 mps 631 mmHg 51%
    04:00 +20°C° 0.1 mm 1 mps 631 mmHg 53%
    05:00 +19°C° 0.1 mm 2 mps 631 mmHg 55%
    06:00 +20°C° 0.1 mm 2 mps 631 mmHg 52%
    07:00 +21°C° 0.1 mm 2 mps 632 mmHg 49%
    08:00 +24°C° 0.1 mm 2 mps 633 mmHg 47%
    09:00 +25°C° 0 mm 3 mps 633 mmHg 43%
    10:00 +27°C° 0 mm 3 mps 633 mmHg 39%
    11:00 +28°C° 0 mm 4 mps 633 mmHg 35%
    12:00 +28°C° 0 mm 4 mps 633 mmHg 35%
    13:00 +28°C° 0 mm 5 mps 632 mmHg 35%
    14:00 +28°C° 0 mm 5 mps 632 mmHg 35%
    15:00 +26°C° 1.1 mm 4 mps 631 mmHg 45%
    16:00 +24°C° 1.1 mm 3 mps 630 mmHg 55%
    17:00 +21°C° 1.1 mm 2 mps 629 mmHg 65%
    18:00 +20°C° 0.1 mm 2 mps 629 mmHg 68%
    19:00 +19°C° 0.1 mm 2 mps 629 mmHg 72%
    20:00 +20°C° 0.1 mm 1 mps 629 mmHg 75%
    21:00 +19°C° 0.1 mm 1 mps 629 mmHg 75%
    22:00 +18°C° 0.1 mm 2 mps 629 mmHg 74%
    23:00 +18°C° 0.1 mm 2 mps 629 mmHg 74%
    Show more